Change the Weather History Date:

Wednesday, October 24, 2012

  Actual Average (KTYR) Record (KTYR)
Temperature  
Mean Temperature 74 °F 64 °F  
Max Temperature 82 °F 75 °F 88 °F (2001)
Min Temperature 66 °F 54 °F 28 °F (1917)
Degree Days  
Heating Degree Days 0 4  
Month to date heating degree days 41  
Since 1 July heating degree days 46  
Cooling Degree Days 9 3  
Month to date cooling degree days 112  
Year to date cooling degree days 2376  
Growing Degree Days 24 (Base 50)    
Moisture  
Dew Point 67 °F    
Average Humidity 80    
Maximum Humidity 100    
Minimum Humidity 54    
Precipitation  
Precipitation 0.00 in 0.17 in 3.13 in (1997)
Month to date precipitation 3.70  
Year to date precipitation 36.30  
Snow  
Snow 0.00 in - - ()
Month to date snowfall  
Since 1 July snowfall  
Since 1 September snowfall  
Snow Depth -    
Sea Level Pressure  
Sea Level Pressure 29.96 in    
Wind  
Wind Speed 4 mph (SSE)    
Max Wind Speed 14 mph    
Max Gust Speed 20 mph    
Visibility 9 miles    
Events Thunderstorm    
T = Trace of Precipitation, MM = Missing Value Source: NWS Daily Summary

Daily Weather History Graph

Daily Weather History Graph

Search for Another Location

Airport or City:

Trip Planner

Search our weather history database for the weather conditions in past years. The results will help you decide how hot, cold, wet, or windy it might be!

Date:

Astronomy

Oct. 24, 2012 Rise Set
Actual Time 7:33 AM CDT 6:38 PM CDT
Civil Twilight 7:08 AM CDT 7:03 PM CDT
Nautical Twilight 6:39 AM CDT 7:32 PM CDT
Astronomical Twilight 6:10 AM CDT 8:00 PM CDT
Moon 3:41 PM CDT (10/24) 2:45 AM CDT (10/24)
Length of Visible Light 11h 55m
Length of Day
11h 04m
Waxing Gibbous, 76% of the Moon is Illuminated
Oct 24
Waxing Gibbous
Oct 29
Full
Nov 6
Last Quarter
Nov 13
New
Nov 20
First Quarter

Hourly Weather History & Observations

Time (CDT) Temp. Heat Index Dew Point Humidity Pressure Visibility Wind Dir Wind Speed Gust Speed Precip Events Conditions
12:15 AM 71.6 °F - 64.4 °F 78% 29.96 in 10.0 mi Calm Calm - N/A   Clear
12:35 AM 69.8 °F - 64.4 °F 83% 29.96 in 10.0 mi SE 3.5 mph - N/A   Clear
12:55 AM 69.8 °F - 64.4 °F 83% 29.97 in 10.0 mi SE 3.5 mph - N/A   Clear
1:15 AM 68.0 °F - 64.4 °F 88% 29.97 in 10.0 mi Calm Calm - N/A   Clear
1:35 AM 66.2 °F - 64.4 °F 94% 29.97 in 10.0 mi Calm Calm - N/A   Clear
1:55 AM 66.2 °F - 64.4 °F 94% 29.97 in 10.0 mi SSE 3.5 mph - N/A   Clear
2:15 AM 68.0 °F - 64.4 °F 88% 29.97 in 10.0 mi SSE 3.5 mph - N/A   Clear
2:35 AM 69.8 °F - 64.4 °F 83% 29.97 in 10.0 mi Calm Calm - N/A   Clear
2:55 AM 69.8 °F - 64.4 °F 83% 29.97 in 10.0 mi SSE 4.6 mph - N/A   Clear
3:15 AM 68.0 °F - 64.4 °F 88% 29.97 in 10.0 mi SSE 4.6 mph - N/A   Clear
3:35 AM 68.0 °F - 64.4 °F 88% 29.97 in 10.0 mi South 4.6 mph - N/A   Clear
3:55 AM 68.0 °F - 64.4 °F 88% 29.97 in 10.0 mi SSE 4.6 mph - N/A   Clear
4:15 AM 68.0 °F - 64.4 °F 88% 29.97 in 10.0 mi SSE 3.5 mph - N/A   Clear
4:35 AM 66.2 °F - 64.4 °F 94% 29.97 in 10.0 mi SSE 4.6 mph - N/A   Clear
4:55 AM 66.2 °F - 64.4 °F 94% 29.98 in 10.0 mi SSE 3.5 mph - N/A   Clear
5:15 AM 66.2 °F - 66.2 °F 100% 29.98 in 10.0 mi SSE 3.5 mph - N/A   Clear
5:35 AM 66.2 °F - 66.2 °F 100% 29.99 in 10.0 mi SE 4.6 mph - N/A   Clear
5:55 AM 66.2 °F - 66.2 °F 100% 29.99 in 10.0 mi SE 3.5 mph - N/A   Clear
6:15 AM 66.2 °F - 66.2 °F 100% 30.00 in 9.0 mi SSE 4.6 mph - N/A   Scattered Clouds
6:35 AM 68.0 °F - 66.2 °F 94% 30.00 in 8.0 mi Calm Calm - N/A   Overcast
6:55 AM 68.0 °F - 68.0 °F 100% 30.00 in 8.0 mi SSE 3.5 mph - N/A   Overcast
7:15 AM 68.0 °F - 68.0 °F 100% 30.01 in 8.0 mi South 4.6 mph - N/A   Overcast
7:35 AM 69.8 °F - 68.0 °F 94% 30.01 in 5.0 mi South 3.5 mph - N/A   Overcast
7:55 AM 69.8 °F - 68.0 °F 94% 30.01 in 5.0 mi South 4.6 mph - N/A   Overcast
8:15 AM 69.8 °F - 68.0 °F 94% 30.02 in 5.0 mi South 4.6 mph - N/A   Mostly Cloudy
8:35 AM 69.8 °F - 68.0 °F 94% 30.03 in 5.0 mi SSE 4.6 mph - N/A   Mostly Cloudy
8:55 AM 69.8 °F - 69.8 °F 100% 30.03 in 6.0 mi SSE 3.5 mph - N/A   Scattered Clouds
9:15 AM 71.6 °F - 69.8 °F 94% 30.03 in 6.0 mi SSE 5.8 mph - N/A   Mostly Cloudy
9:35 AM 71.6 °F - 69.8 °F 94% 30.04 in 7.0 mi South 8.1 mph - N/A   Mostly Cloudy
9:55 AM 71.6 °F - 69.8 °F 94% 30.04 in 8.0 mi South 5.8 mph - N/A   Overcast
10:15 AM 73.4 °F - 69.8 °F 88% 30.04 in 8.0 mi South 8.1 mph - N/A   Mostly Cloudy
10:35 AM 73.4 °F - 69.8 °F 88% 30.04 in 8.0 mi South 6.9 mph - N/A   Mostly Cloudy
10:55 AM 75.2 °F - 68.0 °F 78% 30.04 in 9.0 mi South 9.2 mph 19.6 mph N/A   Mostly Cloudy
11:15 AM 75.2 °F - 68.0 °F 78% 30.04 in 10.0 mi South 9.2 mph - N/A   Scattered Clouds
11:35 AM 77.0 °F - 68.0 °F 74% 30.03 in 10.0 mi SSW 13.8 mph 17.3 mph N/A   Scattered Clouds
11:55 AM 78.8 °F - 68.0 °F 69% 30.03 in 10.0 mi South 9.2 mph 16.1 mph N/A   Partly Cloudy
12:15 PM 80.6 °F 83.2 °F 68.0 °F 65% 30.02 in 10.0 mi SSE 11.5 mph 18.4 mph N/A   Partly Cloudy
12:35 PM 80.6 °F 82.7 °F 66.2 °F 61% 30.01 in 10.0 mi SSW 12.7 mph 16.1 mph N/A   Scattered Clouds
12:55 PM 80.6 °F 82.7 °F 66.2 °F 61% 30.00 in 10.0 mi South 9.2 mph 16.1 mph N/A   Scattered Clouds
1:15 PM 80.6 °F 82.7 °F 66.2 °F 61% 29.98 in 10.0 mi South 10.4 mph 16.1 mph N/A   Scattered Clouds
1:35 PM 80.6 °F 82.7 °F 66.2 °F 61% 29.97 in 10.0 mi South 4.6 mph - N/A   Partly Cloudy
1:55 PM 80.6 °F 82.7 °F 66.2 °F 61% 29.96 in 10.0 mi South 8.1 mph - N/A   Scattered Clouds
2:15 PM 80.6 °F 82.7 °F 66.2 °F 61% 29.95 in 10.0 mi South 6.9 mph - N/A   Mostly Cloudy
2:35 PM 82.4 °F 84.6 °F 66.2 °F 58% 29.94 in 10.0 mi SSE 5.8 mph - N/A   Scattered Clouds
2:55 PM 82.4 °F 84.6 °F 66.2 °F 58% 29.94 in 10.0 mi South 8.1 mph - N/A   Partly Cloudy
3:15 PM 82.4 °F 84.6 °F 66.2 °F 58% 29.93 in 10.0 mi SSE 9.2 mph - N/A   Scattered Clouds
3:35 PM 80.6 °F 82.7 °F 66.2 °F 61% 29.92 in 10.0 mi South 5.8 mph - N/A   Partly Cloudy
4:15 PM 82.4 °F 84.6 °F 66.2 °F 58% 29.91 in 10.0 mi SSW 9.2 mph - N/A   Clear
4:35 PM 82.4 °F 83.9 °F 64.4 °F 54% 29.91 in 10.0 mi South 6.9 mph - N/A   Clear
4:55 PM 82.4 °F 83.9 °F 64.4 °F 54% 29.90 in 10.0 mi South 6.9 mph - N/A   Clear
5:15 PM 82.4 °F 83.9 °F 64.4 °F 54% 29.90 in 10.0 mi SSE 5.8 mph - N/A   Clear
5:35 PM 82.4 °F 84.6 °F 66.2 °F 58% 29.90 in 10.0 mi SSE 6.9 mph - N/A   Clear
5:55 PM 80.6 °F 82.7 °F 66.2 °F 61% 29.89 in 10.0 mi SSE 4.6 mph - N/A   Clear
6:15 PM 78.8 °F - 66.2 °F 65% 29.89 in 10.0 mi SE 4.6 mph - N/A   Clear
6:35 PM 78.8 °F - 66.2 °F 65% 29.89 in 10.0 mi SSE 3.5 mph - N/A   Clear
6:55 PM 77.0 °F - 66.2 °F 69% 29.90 in 10.0 mi SE 3.5 mph - N/A   Clear
7:35 PM 73.4 °F - 68.0 °F 83% 29.91 in 10.0 mi Calm Calm - N/A   Clear
8:15 PM 71.6 °F - 68.0 °F 88% 29.90 in 10.0 mi SE 3.5 mph - N/A   Clear
8:35 PM 73.4 °F - 68.0 °F 83% 29.91 in 10.0 mi SE 4.6 mph - N/A Thunderstorm Clear
8:55 PM 73.4 °F - 68.0 °F 83% 29.91 in 10.0 mi SE 5.8 mph - N/A   Clear
9:15 PM 73.4 °F - 68.0 °F 83% 29.91 in 10.0 mi SE 4.6 mph - N/A   Clear
9:35 PM 73.4 °F - 68.0 °F 83% 29.91 in 10.0 mi SE 5.8 mph - N/A   Clear
9:55 PM 73.4 °F - 68.0 °F 83% 29.91 in 10.0 mi SE 3.5 mph - N/A   Clear
10:35 PM 73.4 °F - 68.0 °F 83% 29.91 in 10.0 mi SE 3.5 mph - N/A   Clear
10:55 PM 71.6 °F - 66.2 °F 83% 29.91 in 10.0 mi SE 3.5 mph - N/A   Clear
11:15 PM 71.6 °F - 66.2 °F 83% 29.91 in 10.0 mi SE 4.6 mph - N/A   Clear
11:55 PM 73.4 °F - 66.2 °F 78% 29.89 in 10.0 mi SSE 8.1 mph - N/A   Clear